Weather History for GMMX - October, 2013

Change the Weather History Date:

Wednesday, October 2, 2013

  Actual Average Record
Temperature  
Mean Temperature 75 °F -  
Max Temperature 84 °F 80 °F 104 °F (2006)
Min Temperature 66 °F 57 °F 59 °F (1998)
Cooling Degree Days 10    
Growing Degree Days 25 (Base 50)    
Moisture  
Dew Point 67 °F    
Average Humidity 79    
Maximum Humidity 100    
Minimum Humidity 52    
Precipitation  
Precipitation 0.00 in 0.03 in - ()
Sea Level Pressure  
Sea Level Pressure 29.91 in    
Wind  
Wind Speed 6 mph ()    
Max Wind Speed 14 mph    
Max Gust Speed -    
Visibility 5.9 miles    
Events      
Averages and records for this station are not official NWS values.
T = Trace of Precipitation, MM = Missing Value Source: Averaged Metar Reports

Daily Weather History Graph

Daily Weather History Graph

Search for Another Location

Airport or City:

Trip Planner

Search our weather history database for the weather conditions in past years. The results will help you decide how hot, cold, wet, or windy it might be!

Date:

Astronomy

Oct. 02, 2013 Rise Set
Actual Time 7:26 AM WEST 7:15 PM WEST
Civil Twilight 7:02 AM WEST 7:40 PM WEST
Nautical Twilight 6:34 AM WEST 8:08 PM WEST
Astronomical Twilight 6:05 AM WEST 8:36 PM WEST
Moon 4:54 AM WEST (10/2) 5:38 PM WEST (10/2)
Length of Visible Light 12h 37m
Length of Day
11h 49m
Waning Crescent, 7% of the Moon is Illuminated
Oct 2
Waning Crescent
Oct 5
New
Oct 12
First Quarter
Oct 19
Full
Oct 27
Last Quarter

Hourly Weather History & Observations

Time (WEST) Temp. Heat Index Dew Point Humidity Pressure Visibility Wind Dir Wind Speed Gust Speed Precip Events Conditions
12:00 AM 75.2 °F - 68.0 °F 78% 29.98 in - SW 3.5 mph - N/A   Clear
12:30 AM 73.4 °F - 68.0 °F 83% 29.95 in - SW 5.8 mph - N/A   Clear
1:00 AM 73 °F - 67 °F 76% 29.89 in 6 mi SW 4.6 mph - -  
1:00 AM 73.4 °F - 66.2 °F 78% 29.95 in - SW 4.6 mph - N/A   Clear
1:30 AM 71.6 °F - 66.2 °F 83% 29.95 in - SW 5.8 mph - N/A   Clear
2:00 AM 71.6 °F - 66.2 °F 83% 29.95 in - WSW 4.6 mph - N/A   Clear
2:30 AM 69.8 °F - 66.2 °F 88% 29.92 in - WSW 4.6 mph - N/A   Clear
3:00 AM 69.8 °F - 66.2 °F 88% 29.92 in - SW 4.6 mph - N/A   Clear
3:30 AM 69.8 °F - 66.2 °F 88% 29.92 in - SW 5.8 mph - N/A   Clear
4:00 AM 69 °F - 66 °F 88% 29.87 in 6 mi WSW 8.1 mph - -  
4:00 AM 68.0 °F - 66.2 °F 94% 29.92 in - WSW 8.1 mph - N/A   Clear
4:30 AM 68.0 °F - 66.2 °F 94% 29.92 in - WSW 8.1 mph - N/A   Clear
5:00 AM 68.0 °F - 66.2 °F 94% 29.92 in - WSW 6.9 mph - N/A   Clear
5:30 AM 68.0 °F - 66.2 °F 94% 29.92 in - WSW 6.9 mph - N/A   Clear
6:00 AM 66.2 °F - 66.2 °F 100% 29.92 in - WSW 5.8 mph - N/A   Clear
6:30 AM 66.2 °F - 66.2 °F 100% 29.92 in - SW 4.6 mph - N/A   Clear
7:00 AM 67 °F - 67 °F 98% 29.87 in 6 mi SSW 6.9 mph - -   Scattered Clouds
7:00 AM 68.0 °F - 66.2 °F 94% 29.92 in 6.2 mi SSW 6.9 mph - N/A   Partly Cloudy
7:30 AM 68.0 °F - 66.2 °F 94% 29.92 in 6.2 mi SW 5.8 mph - N/A   Partly Cloudy
8:00 AM 68.0 °F - 66.2 °F 94% 29.92 in 5.6 mi SW 4.6 mph - N/A   Partly Cloudy
8:30 AM 68.0 °F - 68.0 °F 100% 29.92 in 4.3 mi WSW 4.6 mph - N/A   Partly Cloudy
9:00 AM 69.8 °F - 68.0 °F 94% 29.92 in 3.7 mi WSW 4.6 mph - N/A   Partly Cloudy
9:22 AM 69.8 °F - 68.0 °F 94% 29.92 in 3.7 mi West 5.8 mph - N/A   Mostly Cloudy
9:30 AM 69.8 °F - 68.0 °F 94% 29.95 in 3.7 mi West 5.8 mph - N/A   Mostly Cloudy
10:00 AM 71 °F - 67 °F 85% 29.88 in 6 mi WNW 5.8 mph - -   Mostly Cloudy
10:00 AM 69.8 °F - 68.0 °F 94% 29.95 in 5.6 mi WNW 6.9 mph - N/A   Mostly Cloudy
10:30 AM 71.6 °F - 68.0 °F 88% 29.95 in 5.6 mi West 4.6 mph - N/A   Mostly Cloudy
11:00 AM 71.6 °F - 68.0 °F 88% 29.95 in 3.7 mi West 5.8 mph - N/A   Mostly Cloudy
11:26 AM 73.4 °F - 68.0 °F 83% 29.95 in 6.2 mi West 6.9 mph - N/A   Mostly Cloudy
11:30 AM 73.4 °F - 68.0 °F 83% 29.95 in 6.2 mi West 6.9 mph - N/A   Mostly Cloudy
12:00 PM 73.4 °F - 68.0 °F 83% 29.95 in 6.2 mi West 6.9 mph - N/A   Mostly Cloudy
12:30 PM 75.2 °F - 68.0 °F 78% 29.92 in 6.2 mi WSW 5.8 mph - N/A   Mostly Cloudy
1:00 PM 77 °F - 69 °F 70% 29.85 in 6 mi WSW 4.6 mph - -   Mostly Cloudy
1:00 PM 77.0 °F - 68.0 °F 74% 29.92 in 6.2 mi West 5.8 mph - N/A   Mostly Cloudy
1:30 PM 77.0 °F - 68.0 °F 74% 29.92 in 6.2 mi West 9.2 mph - N/A   Mostly Cloudy
2:00 PM 77.0 °F - 68.0 °F 74% 29.89 in 6.2 mi West 6.9 mph - N/A   Mostly Cloudy
2:30 PM 78.8 °F - 68.0 °F 69% 29.89 in 6.2 mi SSW 3.5 mph - N/A   Mostly Cloudy
3:00 PM 80.6 °F 83.2 °F 68.0 °F 65% 29.89 in 6.2 mi WNW 8.1 mph - N/A   Mostly Cloudy
3:30 PM 80.6 °F 83.2 °F 68.0 °F 65% 29.89 in 6.2 mi WNW 5.8 mph - N/A   Mostly Cloudy
4:00 PM 82 °F - 67 °F 52% 29.80 in 6 mi West 8.1 mph - -   Mostly Cloudy
4:00 PM 82.4 °F 85.4 °F 68.0 °F 62% 29.89 in 6.2 mi West 6.9 mph - N/A   Mostly Cloudy
4:30 PM 82.4 °F 85.4 °F 68.0 °F 62% 29.89 in 6.2 mi West 9.2 mph - N/A   Mostly Cloudy
5:00 PM 82.4 °F 85.4 °F 68.0 °F 62% 29.89 in 6.2 mi WSW 10.4 mph - N/A   Mostly Cloudy
5:30 PM 82.4 °F 85.4 °F 68.0 °F 62% 29.89 in 6.2 mi WSW 8.1 mph - N/A   Mostly Cloudy
6:00 PM 80.6 °F 82.7 °F 66.2 °F 61% 29.89 in 6.2 mi WSW 8.1 mph - N/A   Mostly Cloudy
6:30 PM 80.6 °F 83.2 °F 68.0 °F 65% 29.89 in 6.2 mi West 12.7 mph - N/A   Mostly Cloudy
7:00 PM 78 °F - 67 °F 61% 29.83 in 6 mi West 12.7 mph - -   Mostly Cloudy
7:00 PM 78.8 °F - 68.0 °F 69% 29.92 in 6.2 mi West 13.8 mph - N/A   Scattered Clouds
7:30 PM 77.0 °F - 66.2 °F 69% 29.92 in 6.2 mi West 13.8 mph - N/A   Scattered Clouds
8:00 PM 77.0 °F - 64.4 °F 65% 29.92 in 6.2 mi West 6.9 mph - N/A   Scattered Clouds
8:30 PM 77.0 °F - 64.4 °F 65% 29.92 in 6.2 mi WSW 4.6 mph - N/A   Scattered Clouds
9:00 PM 75.2 °F - 64.4 °F 69% 29.92 in 6.2 mi WSW 3.5 mph - N/A   Scattered Clouds
9:30 PM 75.2 °F - 62.6 °F 65% 29.92 in 6.2 mi SW 5.8 mph - N/A   Scattered Clouds
10:00 PM 76 °F - 63 °F 56% 29.86 in 6 mi WSW 6.9 mph - -   Mostly Cloudy
10:00 PM 75.2 °F - 62.6 °F 65% 29.95 in 6.2 mi SW 6.9 mph - N/A   Scattered Clouds
10:30 PM 75.2 °F - 64.4 °F 69% 29.95 in 6.2 mi West 9.2 mph - N/A   Scattered Clouds
11:00 PM 75.2 °F - 64.4 °F 69% 29.95 in 6.2 mi NW 5.8 mph - N/A   Scattered Clouds
11:30 PM 75.2 °F - 64.4 °F 69% 29.95 in 6.2 mi NW 6.9 mph - N/A   Scattered Clouds